Regional Weather Roundup
Issued by NWS Burlington, VT

Home | Current Version | Previous Version | Text Only | Print | Product List | Glossary On
Versions: 1 2 3 4 5 6 7 8 9 10 11 12 13 14 15 16 17 18 19 20 21 22 23 24 25 26 27 28 29 30 31 32 33 34 35 36 37 38 39 40 41 42 43 44 45 46 47 48 49 50
000
ASUS41 KBTV 230230
RWRBTV
VERMONT REGIONAL WEATHER ROUNDUP
NATIONAL WEATHER SERVICE BURLINGTON VT
1000 PM EDT FRI AUG 22 2014

NOTE: "FAIR" INDICATES FEW OR NO CLOUDS BELOW 12,000 FEET WITH NO
SIGNIFICANT WEATHER AND/OR OBSTRUCTIONS TO VISIBILITY.

* THESE REPORTS ARE NOT UNDER NWS QUALITY CONTROL AND/OR DO NOT
  REPORT WEATHER SUCH AS PRECIPITATION AND FOG.

VTZ001>019-230300-
_____VERMONT_____


CITY           SKY/WX    TMP DP  RH WIND       PRES   REMARKS
BURLINGTON     DRIZZLE   63  61  93 CALM      30.12S
MONTPELIER     CLOUDY    60  60 100 CALM      30.18S FOG
MORRISVILLE    CLOUDY    60  59  96 CALM      30.15S FOG
ST. JOHNSBURY*   N/A     62  61  96 MISG      30.13S
MIDDLEBURY*    CLOUDY    62  62 100 CALM      30.12S
RUTLAND*       CLOUDY    61  59  94 CALM      30.12S
SPRINGFIELD    CLOUDY    61  61 100 CALM      30.14S FOG
HIGHGATE*      CLOUDY    64  60  88 CALM      30.12S
NEWPORT*       CLOUDY    61  60  96 CALM      30.15S
BENNINGTON     CLOUDY    64  58  80 CALM      30.11S
SUTTON*          N/A     59 N/A N/A MISG        N/A
GALLUP MILLS*    N/A      0 N/A N/A MISG        N/A
UNION VILLAGE*   N/A     61 N/A N/A MISG        N/A
MT. MANSFIELD*   N/A     52 N/A N/A SE18        N/A

_____LAKE CHAMPLAIN_____


CITY           SKY/WX    TMP DP  RH WIND       PRES   REMARKS
BURTON ISLAND*   N/A     64  63  94 S6          N/A
COLCHESTER RF*   N/A     66  63  88 SW9         N/A
DIAMOND ISL*     N/A    N/A N/A N/A E3          N/A

$$

NYZ007-026>031-035-052-083-230300-
_____NORTHERN NEW YORK_____


CITY           SKY/WX    TMP DP  RH WIND       PRES   REMARKS
PLATTSBURGH    CLOUDY    62  61  96 CALM      30.11S
SARANAC LAKE   MOCLDY    58  56  93 CALM      30.09F
MASSENA        CLOUDY    66  63  90 E5        30.07R
OGDENSBURG*    CLOUDY    66  63  88 CALM      30.06R
PARISHVILLE*     N/A     70 N/A N/A SE12        N/A
WATERTOWN      PTCLDY    68  60  75 E5        30.03R
FT DRUM        MOCLDY    66  63  88 SE8       30.04S
ALBANY         CLOUDY    65  61  87 N3        30.09S

$$
NHZ002-005-011-230300-
_____NEW HAMPSHIRE_____


CITY           SKY/WX    TMP DP  RH WIND       PRES   REMARKS
LEBANON        CLOUDY    61  59  93 CALM      30.13S
KEENE          CLOUDY    63  55  77 CALM      30.13S
MT WASHINGTON  DRZL/FOG  45  45 100 E18         N/A  VSB 0
PLYMOUTH       CLOUDY    61  61 100 CALM      30.14S
WHITEFIELD     CLOUDY    64  60  87 CALM      30.15S

$$

_____REGIONAL QUEBEC LOCATIONS_____


CITY           SKY/WX    TMP DP  RH WIND       PRES   REMARKS
MONTREAL       PTCLDY    66  59  77 E6        30.11S
QUEBEC CITY    PTCLDY    66  59  77 NE8       30.16S
SHERBROOKE     CLEAR     61  59  94 E3        30.15S

_____REGIONAL ONTARIO LOCATIONS_____


CITY           SKY/WX    TMP DP  RH WIND       PRES   REMARKS
OTTAWA         PTCLDY    64  59  82 NE12      30.08S

______KEY______
VSB  - VISIBILITY IN MILES
WCI  - WIND CHILL INDEX
HX   - HEAT INDEX
$$
NNNN


USA.gov is the U.S. government's official web portal to all federal, state and local government web resources and services.